This demonstration page uses our WeatherBlox Daily Observations layout. Learn more.

Left ArrowRight Arrow

36.17497, -115.13722

Hourly Observations for August 1, 2016

Temp ( °F °C ) Dew Point ( °F °C ) Humidity (%) Winds ( mph kmh ) Pressure ( in mb ) Visibility ( mi km ) Precip ( " mm )
12:53 am 00:53 Clear 87 30.6 54 12.2 32 32 Calm 29.85 1011 10 16.0934 0 0
1:53 am 01:53 Clear 87 30.6 54 12.2 32 32 ESE 3 6 29.86 1011 10 16.0934 0 0
2:53 am 02:53 Clear 85 29.4 54 12.2 35 35 ESE 6 9 29.87 1011 10 16.0934 0 0
3:53 am 03:53 Clear 85 29.4 55 12.8 36 36 E 8 13 29.88 1012 10 16.0934 0 0
4:53 am 04:53 Clear 83 28.3 58 14.4 43 43 ESE 8 13 29.88 1012 10 16.0934 0 0
5:53 am 05:53 Sunny 83 28.3 60 15.6 46 46 ENE 7 11 29.89 1012 10 16.0934 0 0
6:53 am 06:53 Sunny 82 27.8 61 16.1 49 49 NE 7 11 29.9 1013 10 16.0934 0 0
7:53 am 07:53 Sunny 85 29.4 61 16.1 45 45 ENE 6 9 29.91 1013 10 16.0934 0 0
8:53 am 08:53 Sunny 86 30 61 16.1 43 43 E 9 15 29.93 1013 10 16.0934 0 0
9:53 am 09:53 Sunny 88 31.1 62 16.7 42 42 E 12 19 29.93 1014 10 16.0934 0 0
10:53 am 10:53 Sunny 90 32.2 62 16.7 39 39 SSE 8 13 29.94 1014 10 16.0934 0 0
11:53 am 11:53 Sunny 94 34.4 62 16.7 35 35 SSE 14 22 29.93 1014 10 16.0934 0 0
12:53 pm 12:53 Sunny 96 35.6 62 16.7 32 32 VRB 6 9 29.89 1012 10 16.0934 0 0
1:53 pm 13:53 Sunny 98 36.7 62 16.7 31 31 ESE 8 13 29.87 1011 10 16.0934 0 0
2:53 pm 14:53 Sunny 98 36.7 62 16.7 31 31 SE 7 11 29.84 1011 10 16.0934 0 0
3:53 pm 15:53 Sunny 100 37.8 61 16.1 28 28 SE 8 13 29.81 1010 10 16.0934 0 0
4:53 pm 16:53 Sunny 99 37.2 61 16.1 29 29 SSW 12 19 29.81 1010 10 16.0934 0 0
5:53 pm 17:53 Sunny 99 37.2 61 16.1 29 29 SSE 13 20 29.8 1009 10 16.0934 0 0
6:53 pm 18:53 Sunny 98 36.7 59 15 27 27 S 9 15 29.81 1009 10 16.0934 0 0
7:53 pm 19:53 Clear 97 36.1 58 14.4 27 27 SSE 9 15 29.82 1010 10 16.0934 0 0
8:53 pm 20:53 Clear 96 35.6 59 15 29 29 SE 9 15 29.84 1011 10 16.0934 0 0
9:53 pm 21:53 Clear 94 34.4 61 16.1 33 33 SE 6 9 29.88 1012 10 16.0934 0 0
10:53 pm 22:53 Clear 93 33.9 61 16.1 34 34 SSE 8 13 29.9 1012 10 16.0934 0 0
11:53 pm 23:53 Clear 91 32.8 60 15.6 35 35 ESE 5 7 29.91 1013 10 16.0934 0 0

Powered by AerisWeather